Main page
METAR-TAF:

METAR-TAF

Airports :

Trieste, Italy

latitude: 45-39N, longitude: 013-45E, elevation: 8 m

Current weather observation

The report was made 51 minutes ago, at 11:55 UTC
Wind 1 kt from the West/Northwest
Temperature 22°C
Humidity 69%
Pressure 1015 hPa
Visibility 10 km or more
no clouds below 1500 m and no cumulonimbus

METAR: LIVT 181155Z 30001KT CAVOK 22/16 Q1015 RMK BKN BKN060 QUK 1 QUL 0 VIS MAR 15 KM VIS MIN 9999

Time: 14:46 (12:46 UTC)


TAF: missing

Weather observations and forecasts of more than 4000 airports (METAR and TAF reports).

The available stations are represented by yellow and red dots on the map.

Hover mouse over dot to see the name of the station.

Then click to see weather observations and forecasts.

To change the map : click on the green buttons with a black cross to zoom in, on the green button with a dash to zoom out, or on the green arrows for adjacent maps.


METAR-TAF: